Overview Statistics Trail Chart Weather Telemetry Raw packets
 

This is the latest recevied weather packets stored in our database for station/object PU5FJO-13. If no packets are shown the sender has not sent any weather packets the latest 10 day(s).

<< 33 34 35 36 37 38 39 >>
Time Temp. Humidity Pressure Rain* Wind** Luminosity Snow
1777322168 21.11° C 59% 1015.3 hPa - - - -
1777321565 21.11° C 62% 1015.2 hPa - - - -
1777320965 21.11° C 63% 1015 hPa - - - -
1777320365 21.11° C 64% 1014.9 hPa - - - -
1777319765 21.67° C 64% 1014.8 hPa - - - -
1777319165 21.67° C 63% 1014.7 hPa - - - -
1777318565 21.67° C 63% 1014.5 hPa - - - -
1777317965 21.67° C 65% 1014.3 hPa - - - -
1777317365 21.67° C 64% 1014.2 hPa - - - -
1777316765 21.67° C 63% 1014 hPa - - - -
1777316165 21.67° C 64% 1013.9 hPa - - - -
1777315565 21.67° C 65% 1013.8 hPa - - - -
1777314965 21.67° C 65% 1013.8 hPa - - - -
1777314365 22.22° C 63% 1013.6 hPa - - - -
1777313765 22.22° C 63% 1013.6 hPa - - - -
1777313165 22.22° C 63% 1013.4 hPa - - - -
1777312566 22.22° C 65% 1013.4 hPa - - - -
1777311965 22.22° C 65% 1013.4 hPa - - - -
1777311365 22.78° C 65% 1013.3 hPa - - - -
1777310765 22.22° C 66% 1013.4 hPa - - - -
1777310165 22.78° C 66% 1013.3 hPa - - - -
1777309565 22.78° C 65% 1013.3 hPa - - - -
1777308965 23.33° C 64% 1013.1 hPa - - - -
1777308365 23.89° C 62% 1013 hPa - - - -
1777307765 24.44° C 62% 1012.9 hPa - - - -

* Rain since midnight (hover to see other rain measurements)
** Current wind speed in m/s (hover to see current wind gust speed)